Showing default

AIGLONSAT-1, 68437

Orbit data source: Space-Track

AIGLONSAT-1, 68437 is an American payload satellite in SSO that was launched on Mon, 30 Mar 2026 UTC via an FALCON 9 launch vehicle from the Air Force Western Test Range (AFWTR). Payload-class satellites include a variety of spacecraft equipped with specific instruments for various scientific and technological missions. These include communications satellites like Starlink; space stations such as the ISS; scientific satellites like the Hubble; Earth observation satellites from companies like Planet Labs, Umbra, and HawkEye 360; GPS; miniature CubeSats for education and research; and military/defense satellites.

Loading next visibility...
Identifier
68437, 2026-067X
Orbit
SSO
Country
Flag of USUS
Related business
Manufacturer
AIGLON
Mission
Operational Amateur Technology
Bus & Motor
CUBESAT 1U, Unknown motor
Mass
1.7 kg wet, 1.7 kg dry
Launch date (UTC)
2026-03-30 (6 months ago)
Launch vehicle
FALCON 9
Launch site
Air Force Western Test Range (AFWTR)
Object type
Payload
Rocket body
Debris
Shape & HBR
Box, 0.1 m
Radar Cross Section
0.015 m², Medium (>0.1 m² and < 1m²)

Expand to show TLE details & history
Last TLE update: 1 day ago

TLE from 1 day ago
0 AIGLONSAT-1
1 68437U 26067X   26262.33355171  .00011505  00000-0  50670-3 0  9998
2 68437  97.4600 219.8206 0004923  82.9640 277.2156 15.21980786 26253
Epoch: 2026-09-19T08:00Z
TLE epoch observation values (Epoch: 2026-09-19T08:00:18.867Z)
Latitude
-0.00002°
Longitude
101.4984°
Altitude
502.534 km
Speed
7.613 km/s
True Right ascension
14h 39m 16s
True Declination
0° 00' 00"
Sunlit
Object was in daylight at epoch
Visualization orbit readout
Latitude
Unknown
Longitude
Unknown
Altitude
Unknown
Speed
Unknown
Apparent Right ascension
Unknown
Apparent Declination
Unknown
Sunlit
N/A
Visualization observer readout
Local Sidereal Time
05:12:24
Azimuth
Unknown
Elevation
Unknown
Doppler factor
Unknown
Orbital elements
Apogee altitude
500.217 km
Perigee altitude
493.447 km
Semi-major axis
6,874.969 km
Eccentricity
0.00049
Inclination
97.46°
RAAN
219.8206°
Arg. of periapsis
82.964°
True anomaly
277.15963°
Mean anomaly
277.2156°
Eccentric anomaly
277.18761°
Mean motion
3.80747 °/min
Orbital period
94.55 mins
BSTAR
0.0005067
Loading maneuver chart data...
Computing Atmospheric mass density...
Loading historical data...
Loading historical data...
Loading historical data...
Loading historical data...
Loading historical data...
Loading historical data...
Loading historical data...

Documentation

Showing up to 5 results
|